[[{"header":{"parameterUnit":"m.s-1","parameterCategory":1,"la1":30.2991,"la2":30.254,"lo1":-89.0895,"lo2":-89.0444,"dy":0.0017,"dx":0.0017,"nx":28,"ny":28,"refTime":"2023-10-26T03:00:00:Z","depth":0,"parameterNumber":2,"parameterNumberName":"U-component_of_WINDS"},"data":[0,0,0,0,0,0,0,0,0,0,0,0,0,0,0,0,0,0,0,0,0,0,0,0,0,0,0,0,0,0,0,0,0,0,0,0,0,0,0,0,0,0,0,0,0,0,0,0,0,0,0,0,0,0,0,0,0,0,-5.9298,-5.9298,0,-5.9355,-5.9356,-5.9357,-5.9324,-5.9322,-5.932,-5.9319,-5.9374,-5.9377,-5.938,0,0,0,0,0,0,0,0,0,0,0,0,0,-5.9157,-5.916,-5.9297,-5.9298,-5.9299,-5.9355,-5.9356,-5.9357,-5.9324,-5.9322,-5.932,-5.9318,-5.9373,-5.9377,-5.9381,0,0,0,0,0,0,0,0,0,0,0,0,0,-5.9217,-5.9161,-5.9297,-5.9289,-5.9289,-5.9355,-5.9356,-5.9357,-5.9324,-5.9322,-5.932,-5.9317,-5.9372,-5.9377,-5.9381,-5.9457,0,0,-5.9395,-5.9397,0,0,0,0,0,0,0,0,-5.9214,-5.9222,-5.929,-5.929,-5.929,-5.933,-5.9327,-5.939,-5.9325,-5.9311,-5.9319,-5.9316,-5.9361,-5.9367,-5.9383,-5.9459,-5.9462,-5.9395,-5.9398,-5.94,-5.9401,0,0,0,0,0,0,0,-5.921,-5.922,-5.932,-5.9291,-5.9291,-5.9283,-5.9288,-5.9339,-5.9349,-5.9312,-5.931,-5.9317,-5.9361,-5.9378,-5.9384,-5.9463,-5.9395,-5.9399,-5.9402,-5.9403,-5.9607,-5.961,0,0,0,0,0,0,-5.9206,-5.9216,-5.9318,-5.9322,-5.9245,-5.9287,-5.9294,-5.932,-5.9348,-5.935,-5.9319,-5.9316,-5.9372,-5.9378,-5.9385,-5.9476,-5.94,-5.9404,-5.9406,-5.9604,-5.9608,-5.961,0,0,0,0,0,0,-5.9203,-5.9216,-5.9316,-5.9269,-5.9281,-5.9292,-5.9322,-5.9322,-5.9339,-5.9354,-5.9355,-5.9335,-5.937,-5.9379,-5.944,-5.9478,-5.9406,-5.941,-5.9601,-5.9605,-5.9609,-5.9659,0,0,0,0,0,0,-5.92,-5.9215,-5.9244,-5.927,-5.9284,-5.937,-5.9324,-5.9325,-5.9348,-5.9343,-5.9369,-5.9371,-5.9369,-5.9434,-5.9445,-5.9483,-5.9413,-5.9598,-5.9603,-5.9608,-5.9653,-5.9664,-5.9673,0,0,0,0,0,-5.9195,-5.9254,-5.9245,-5.9258,-5.932,-5.9372,-5.938,-5.9377,-5.9351,-5.938,-5.939,-5.937,-5.9473,-5.944,-5.9452,-5.9492,-5.9595,-5.9601,-5.9607,-5.9649,-5.9662,-5.9672,0,0,0,0,0,0,-5.9229,-5.9257,-5.9247,-5.9317,-5.9343,-5.9366,-5.9402,-5.9391,-5.9423,-5.9417,-5.9412,-5.9419,-5.9482,-5.9494,-5.9457,-5.9568,-5.953,-5.9539,-5.9557,-5.957,-5.9579,-5.9573,-5.9417,0,0,0,0,0,-5.9246,-5.9287,-5.9308,-5.9368,-5.9381,-5.939,-5.9413,-5.9409,-5.9435,-5.9445,-5.9459,-5.9484,-5.9523,-5.9547,-5.9583,-5.9657,-5.9662,-5.9691,-5.97,-5.9708,-5.9714,-5.9756,-5.9768,-5.9631,-5.9631,-5.963,0,0,-5.9278,-5.9299,-5.9324,-5.9375,-5.9395,-5.9437,-5.9399,-5.9445,-5.9476,-5.9452,-5.951,-5.9522,-5.955,-5.9618,-5.9649,-5.963,-5.9755,-5.9716,-5.9722,-5.9724,-5.9763,-5.9776,-5.9788,-5.9635,-5.9634,-5.9633,0,0,-5.9359,-5.9379,-5.9431,-5.9453,-5.9484,-5.949,-5.9503,-5.953,-5.9537,-5.9597,-5.958,-5.9618,-5.9683,-5.9704,-5.9723,-5.9818,-5.9801,-5.983,-5.9879,-5.9919,-5.9929,-5.9939,-5.9972,-5.9984,-5.9838,-5.9838,-5.9838,0,-5.9394,-5.9458,-5.9459,-5.9507,-5.953,-5.9514,-5.9567,-5.9587,-5.9628,-5.9644,-5.9623,-5.9707,-5.9725,-5.9798,-5.9822,-5.9838,-5.9852,-5.9825,-5.9928,-5.9938,-5.9947,-5.9978,-5.9991,-5.9841,-5.9841,-5.984,-5.984,0,-5.95,-5.9545,-5.9584,-5.9626,-5.9654,-5.9704,-5.9713,-5.9741,-5.9737,-5.9746,-5.9808,-5.983,-5.987,-5.9888,-5.9883,-5.9962,-5.9949,-5.9929,-5.9889,-5.9963,-5.9992,-6.0004,-5.9845,-5.9844,-5.9843,-5.9843,0,0,-5.9598,-5.9645,-5.9659,-5.9679,-5.9715,-5.9749,-5.98,-5.9842,-5.9866,-5.9897,-5.9938,-5.9997,-5.9979,-6.0001,-6.0,-6.0036,-6.0109,-6.0011,-6.0011,-6.0027,-6.0197,-6.021,-6.0224,-6.0101,-6.0103,-6.0105,-6.0194,0,-5.968,-5.9769,-5.9774,-5.9854,-5.9896,-5.9885,-5.9929,-5.9956,-5.9967,-6.0004,-6.0016,-6.0057,-6.0031,-6.0045,-6.008,-6.0093,-6.0143,-6.0087,-6.0138,-6.014,-6.0128,-6.0239,-6.0253,-6.0335,-6.0206,-6.0208,-6.0209,0,-5.9786,-5.9822,-5.9908,-5.9941,-5.9958,-5.9998,-6.0038,-6.0074,-6.0106,-6.0111,-6.0139,-6.0134,-6.0186,-6.0149,-6.022,-6.0182,-6.0205,-6.0215,-6.0218,-6.022,-6.0176,-6.0242,-6.0362,-6.0373,-6.0227,-6.0226,-6.0224,0,-5.9847,-5.9918,-5.9979,-5.9997,-6.0037,-6.0065,-6.0083,-6.0112,-6.0138,-6.0174,-6.0191,-6.0232,-6.0253,-6.0286,-6.0292,-6.0264,-6.0364,-6.0327,-6.0369,-6.0369,-6.0387,-6.0385,-6.051,-6.0406,-6.0406,-6.0406,-6.0406,0,-5.9936,-5.9988,-6.0007,-6.0044,-6.0103,-6.0109,-6.0168,-6.0183,-6.0211,-6.0251,-6.0244,-6.0281,-6.0289,-6.0328,-6.0334,-6.0392,-6.0403,-6.0408,-6.0408,-6.0407,-6.0406,-6.0419,-6.0412,-6.0409,-6.0408,-6.0408,-6.0407,0,-6.0012,-6.0027,-6.0092,-6.0127,-6.0137,-6.0179,-6.0209,-6.0244,-6.0257,-6.0308,-6.032,-6.0339,-6.0386,-6.0397,-6.0451,-6.0455,-6.0525,-6.052,-6.0514,-6.0513,-6.0554,-6.0549,-6.0688,-6.0707,-6.0594,-6.0595,-6.0596,0,-6.0066,-6.0107,-6.0147,-6.0175,-6.0195,-6.0238,-6.0266,-6.0275,-6.0304,-6.0346,-6.0376,-6.0423,-6.046,-6.0535,-6.0553,-6.0596,-6.0591,-6.0637,-6.0597,-6.0595,-6.059,-6.0586,-6.059,-6.0643,-6.0645,-6.0646,-6.0646,0,-6.016,-6.0167,-6.0207,-6.0252,-6.0286,-6.0321,-6.0354,-6.0377,-6.0391,-6.0424,-6.0473,-6.0502,-6.056,-6.0606,-6.065,-6.0668,-6.0659,-6.066,-6.0672,-6.0669,-6.0663,-6.0666,-6.0532,-6.0655,-6.0654,-6.0654,-6.0653,-6.0653,-6.0226,-6.0262,-6.0297,-6.0343,-6.0371,-6.0403,-6.0439,-6.0458,-6.0499,-6.0548,-6.0551,-6.0604,-6.0638,-6.0696,-6.0718,-6.0759,-6.0744,-6.0762,-6.0766,-6.0769,-6.0772,-6.066,-6.0767,-6.0767,-6.0767,-6.0767,-6.0766,0,-6.0318,-6.0341,-6.0384,-6.0433,-6.047,-6.0463,-6.0501,-6.0532,-6.0579,-6.0612,-6.065,-6.0707,-6.0753,-6.0777,-6.0823,-6.0851,-6.0849,-6.0863,-6.0859,-6.0864,-6.0783,-6.0767,-6.0864,-6.0864,-6.0864,-6.0864,-6.0864,-6.0864,-6.037,-6.0431,-6.0443,-6.0518,-6.0541,-6.0594,-6.0617,-6.0647,-6.0673,-6.0738,-6.0777,-6.0794,-6.0823,-6.0872,-6.0914,-6.092,-6.0936,-6.0952,-6.0956,-6.0879,-6.0869,-6.0859,-6.0845,-6.0956,-6.0956,-6.1033,-6.1033,-6.1034]},{"header":{"parameterUnit":"m.s-1","parameterCategory":1,"la1":30.2991,"la2":30.254,"lo1":-89.0895,"lo2":-89.0444,"dy":0.0017,"dx":0.0017,"nx":28,"ny":28,"refTime":"2023-10-26T03:00:00:Z","depth":0,"parameterNumber":3,"parameterNumberName":"V-component_of_WINDS"},"data":[0,0,0,0,0,0,0,0,0,0,0,0,0,0,0,0,0,0,0,0,0,0,0,0,0,0,0,0,0,0,0,0,0,0,0,0,0,0,0,0,0,0,0,0,0,0,0,0,0,0,0,0,0,0,0,0,0,0,2.6784,2.6785,0,2.6843,2.6844,2.6844,2.6921,2.6922,2.6924,2.6925,2.6977,2.6978,2.6978,0,0,0,0,0,0,0,0,0,0,0,0,0,2.6732,2.6732,2.6784,2.6785,2.6785,2.6843,2.6844,2.6845,2.6921,2.6923,2.6924,2.6926,2.6977,2.6978,2.6978,0,0,0,0,0,0,0,0,0,0,0,0,0,2.6769,2.6733,2.6784,2.6831,2.6835,2.6843,2.6844,2.6845,2.6921,2.6923,2.6924,2.6926,2.6977,2.6978,2.6978,2.6941,0,0,2.6979,2.6979,0,0,0,0,0,0,0,0,2.6766,2.677,2.6823,2.6827,2.6833,2.6877,2.6845,2.6877,2.692,2.6888,2.6925,2.6927,2.6942,2.6945,2.6952,2.6944,2.6946,2.6979,2.6979,2.6979,2.6979,0,0,0,0,0,0,0,2.6764,2.6768,2.6807,2.6824,2.683,2.6847,2.6854,2.6851,2.6903,2.6891,2.6897,2.6903,2.6945,2.6951,2.6954,2.6947,2.6979,2.6979,2.6979,2.6979,2.6915,2.6913,0,0,0,0,0,0,2.6755,2.6766,2.6805,2.6809,2.6804,2.6846,2.6855,2.6861,2.6904,2.6912,2.6901,2.6906,2.695,2.6953,2.6956,2.6918,2.6979,2.6979,2.698,2.6917,2.6915,2.6913,0,0,0,0,0,0,2.6754,2.6758,2.6803,2.6789,2.6796,2.6845,2.6851,2.6861,2.6868,2.6912,2.6921,2.6899,2.6952,2.6955,2.6946,2.6921,2.698,2.698,2.6919,2.6916,2.6914,2.6841,0,0,0,0,0,0,2.6752,2.6757,2.6745,2.6788,2.6797,2.6793,2.685,2.6861,2.6869,2.6876,2.6912,2.6919,2.6953,2.6945,2.6946,2.6923,2.698,2.6922,2.6918,2.6915,2.6846,2.6837,2.6828,0,0,0,0,0,2.675,2.672,2.6744,2.6748,2.6783,2.6792,2.6796,2.6838,2.6866,2.6854,2.6883,2.6918,2.6924,2.6943,2.6945,2.6921,2.6923,2.6919,2.6915,2.685,2.6838,2.6828,0,0,0,0,0,0,2.6668,2.6726,2.6753,2.6737,2.6759,2.6805,2.679,2.6824,2.6836,2.6842,2.6892,2.6899,2.6884,2.6901,2.6922,2.689,2.6929,2.6925,2.6879,2.6868,2.6859,2.6856,2.698,0,0,0,0,0,2.6649,2.6654,2.6703,2.6683,2.6694,2.674,2.6745,2.6777,2.68,2.6809,2.6837,2.6857,2.6864,2.6867,2.6875,2.6849,2.6859,2.6834,2.6825,2.6817,2.6813,2.6803,2.6793,2.6899,2.6899,2.6899,0,0,2.6608,2.664,2.6639,2.6668,2.6689,2.6692,2.6747,2.6746,2.6749,2.6808,2.6803,2.6824,2.6849,2.6832,2.6826,2.6846,2.6786,2.6812,2.6805,2.6806,2.6798,2.6788,2.6779,2.6896,2.6896,2.6897,0,0,2.6535,2.656,2.6548,2.6569,2.6601,2.6633,2.663,2.6671,2.6689,2.6684,2.673,2.6732,2.6741,2.6759,2.6769,2.6706,2.6739,2.6707,2.6659,2.6649,2.6641,2.6634,2.6613,2.6604,2.6703,2.6702,2.6702,0,2.648,2.6488,2.6536,2.6535,2.6547,2.6604,2.6592,2.6609,2.6641,2.6647,2.667,2.6686,2.6707,2.6696,2.6682,2.6687,2.6685,2.6703,2.6638,2.6632,2.6626,2.6606,2.6598,2.6698,2.6699,2.6699,2.67,0,2.6419,2.6423,2.6409,2.6444,2.6453,2.6446,2.6493,2.6496,2.6527,2.6556,2.6551,2.6579,2.6595,2.6594,2.6622,2.6588,2.66,2.663,2.667,2.6611,2.6594,2.6587,2.6693,2.6694,2.6695,2.6696,0,0,2.6295,2.6359,2.6353,2.637,2.6412,2.6415,2.6411,2.643,2.6433,2.6453,2.6451,2.6459,2.6489,2.65,2.6531,2.6521,2.6472,2.6553,2.6554,2.6538,2.6438,2.6416,2.6406,2.6495,2.6493,2.6492,2.6436,0,2.6231,2.623,2.6275,2.6261,2.6267,2.6323,2.6319,2.6343,2.637,2.6377,2.6406,2.6412,2.6449,2.6457,2.645,2.6479,2.6453,2.6484,2.6492,2.6492,2.6485,2.6397,2.6373,2.6319,2.6429,2.6428,2.6427,0,2.6156,2.6177,2.6164,2.6209,2.6213,2.6209,2.6232,2.6238,2.6267,2.6287,2.6302,2.6338,2.6336,2.6374,2.6372,2.6392,2.6398,2.6413,2.6412,2.6415,2.6456,2.6398,2.6302,2.6294,2.6417,2.6418,2.6418,0,2.607,2.6094,2.609,2.6103,2.6155,2.6151,2.6172,2.6203,2.6212,2.6231,2.6238,2.6254,2.6264,2.6275,2.6315,2.6339,2.6309,2.6349,2.6325,2.6324,2.6316,2.6316,2.6221,2.6318,2.6318,2.6318,2.6318,0,2.5994,2.5985,2.6053,2.6051,2.6042,2.6093,2.6082,2.6108,2.6136,2.6139,2.6186,2.6187,2.624,2.6246,2.6277,2.6271,2.6274,2.629,2.6299,2.6287,2.6285,2.6292,2.6297,2.6316,2.6316,2.6317,2.6317,0,2.5896,2.5942,2.5942,2.5992,2.6005,2.5996,2.6038,2.6037,2.6069,2.6072,2.6075,2.6123,2.6134,2.6175,2.6194,2.6215,2.62,2.6215,2.6191,2.6197,2.6171,2.6173,2.6077,2.6067,2.6169,2.6168,2.6167,0,2.5846,2.5841,2.5892,2.5899,2.5919,2.5929,2.594,2.599,2.6,2.6034,2.6029,2.6044,2.606,2.6074,2.6109,2.6124,2.6142,2.6107,2.6144,2.6133,2.6143,2.6143,2.6144,2.6099,2.6097,2.6096,2.6095,0,2.5752,2.5776,2.5792,2.5816,2.5829,2.585,2.5873,2.5875,2.5931,2.5939,2.5953,2.5965,2.5987,2.6002,2.6024,2.6043,2.6078,2.6084,2.6079,2.6067,2.6054,2.6063,2.6171,2.6086,2.6087,2.6087,2.6088,2.6088,2.5678,2.5677,2.5714,2.5731,2.5754,2.5775,2.5779,2.5811,2.5825,2.5849,2.5877,2.5888,2.5918,2.5952,2.5969,2.5977,2.5996,2.5988,2.5987,2.5985,2.598,2.6053,2.598,2.5981,2.5981,2.5981,2.5981,0,2.5589,2.5616,2.5631,2.5664,2.5677,2.5712,2.574,2.5748,2.5758,2.5785,2.58,2.5816,2.5831,2.5868,2.5887,2.5886,2.5903,2.5889,2.589,2.5895,2.596,2.5964,2.5876,2.5876,2.5876,2.5876,2.5876,2.5876,2.5544,2.5545,2.5573,2.5586,2.5613,2.5627,2.564,2.566,2.5682,2.5699,2.5713,2.5738,2.5769,2.5791,2.5806,2.5817,2.5821,2.5803,2.5818,2.5879,2.589,2.5899,2.5902,2.5803,2.5803,2.5752,2.5752,2.5751]}]]